COSMOS 252 DEB, 3559

Orbit data source: Space-Track

COSMOS 252 DEB, 3559 is space debris in LEO originally from a launch on Fri, 01 Nov 1968 UTC launched from the Tyuratam Missile And Space Complex (TTMTR). Debris objects in space refer to the collection of defunct objects orbiting the Earth. Examples of debris include non-operational satellites, rocket bodies, and fragments generated from explosions, collisions, or faulty payload assembly.

Loading next visibility...
Identifier
3559, 1968-097M
Orbit
LEO
Country
Flag of CISCIS
Related business
Manufacturer
Unknown
Mission
Spacecraft
Bus & Motor
Unknown
Mass
Unknown
Launch date (UTC)
1968-11-01 (57 years ago)
Launch vehicle
Unknown
Launch site
Tyuratam Missile And Space Complex (TTMTR)
Object type
Payload
Rocket body
Debris
Shape & HBR
Unknown
Radar Cross Section
Small (<0.1 m²)

Expand to show TLE details & history
Last TLE update: 13 hours ago

TLE from 13 hours ago
0 COSMOS 252 DEB
1 03559U 68097M   25260.91490293  .00005625  00000-0  10809-2 0  9992
2 03559  62.2882  95.1884 0474035 185.7033 173.8507 14.11521406805400
Epoch: 2025-09-17T21:57Z
TLE epoch observation values (Epoch: 2025-09-17T21:57:27.613Z)
Latitude
0.00002°
Longitude
128.73935°
Altitude
1,196.961 km
Speed
7.083 km/s
True Right ascension
06h 20m 45s
True Declination
0° 00' 00"
Sunlit
Object was in daylight at epoch
Visualization orbit readout
Latitude
Unknown
Longitude
Unknown
Altitude
Unknown
Speed
Unknown
Apparent Right ascension
Unknown
Apparent Declination
Unknown
Sunlit
N/A
Visualization observer readout
Local Sidereal Time
03:36:23
Azimuth
Unknown
Elevation
Unknown
Doppler factor
Unknown
Orbital elements
Apogee altitude
1,195.888 km
Perigee altitude
510.316 km
Semi-major axis
7,231.239 km
Eccentricity
0.0474
Inclination
62.2882°
RAAN
95.1884°
Arg. of periapsis
185.7033°
True anomaly
174.40013°
Mean anomaly
173.8507°
Eccentric anomaly
174.12854°
Mean motion
3.52959 °/min
Orbital period
101.99 mins
BSTAR
0.0010809
Loading maneuver chart data...
Computing Atmospheric mass density...

Documentation

Showing up to 5 results
|